EW1708 Weather Reports


Display with metric or nautical units.
time (UTC)temp
F
wind
direction
speed
MPH
gust
MPH
rain 1hr
in
rain 24hr
in
rain mn
in
humidity
%
barometer
mb
20260906204555 80 74 19.0 26.0 0.00 0.00 0.00 70 1012.9
20260906203556 80 49 17.0 27.0 0.00 0.00 0.00 70 1012.7
20260906202538 80 43 17.0 27.0 0.00 0.00 0.00 69 1012.6
20260906201540 80 51 15.0 23.0 0.00 0.00 0.00 70 1012.6
20260906200543 79 37 16.0 22.0 0.00 0.00 0.00 71 1012.6
20260906195557 79 40 13.0 21.0 0.00 0.00 0.00 72 1012.6
20260906194553 79 34 14.0 22.0 0.00 0.00 0.00 70 1012.8
20260906193521 79 37 15.0 22.0 0.00 0.00 0.00 71 1012.8
20260906192536 81 39 10.0 19.0 0.00 0.00 0.00 70 1012.7
20260906191557 81 52 11.0 17.0 0.00 0.00 0.00 71 1012.7
20260906190611 82 40 8.0 17.0 0.00 0.00 0.00 71 1012.9
20260906185604 82 83 6.0 12.0 0.00 0.00 0.00 71 1013.0
20260906184618 82 53 7.0 12.0 0.00 0.00 0.00 71 1013.2
20260906183559 81 57 7.0 13.0 0.00 0.00 0.00 72 1013.2
20260906182622 81 66 7.0 13.0 0.00 0.00 0.00 73 1013.3
20260906181645 81 92 6.0 11.0 0.00 0.00 0.00 71 1013.3
20260906180627 81 98 7.0 14.0 0.00 0.00 0.00 72 1013.3
20260906175643 80 101 9.0 14.0 0.00 0.00 0.00 75 1013.2
20260906174651 79 61 8.0 17.0 0.00 0.00 0.00 77 1013.4
20260906173647 77 123 12.0 19.0 0.00 0.00 0.00 80 1013.4
20260906172708 77 83 12.0 19.0 0.00 0.00 0.00 81 1013.3
20260906171650 76 115 11.0 18.0 0.00 0.00 0.00 83 1013.4
20260906170643 74 105 10.0 18.0 0.00 0.00 0.00 84 1013.6
20260906165630 73 106 11.0 18.0 0.00 0.00 0.00 86 1013.6
20260906164633 72 92 10.0 15.0 0.00 0.00 0.00 87 1013.8
20260906162437 72 94 7.0 14.0 0.00 0.00 0.00 89 1014.4
20260906161403 71 106 9.0 14.0 0.00 0.00 0.00 89 1014.5
20260906155241 71 90 8.0 13.0 0.00 0.00 0.00 89 1014.7
20260906154236 71 96 9.0 14.0 0.00 0.00 0.00 90 1014.7
20260906153216 70 95 8.0 15.0 0.00 0.00 0.00 90 1014.5
20260906152212 70 78 7.0 15.0 0.00 0.00 0.00 91 1014.5
20260906151202 70 103 8.0 15.0 0.00 0.00 0.00 91 1014.4
20260906150145 70 128 7.0 16.0 0.00 0.00 0.00 91 1014.6
20260906145146 69 116 9.0 16.0 0.00 0.00 0.00 92 1014.9
20260906144204 69 117 7.0 12.0 0.00 0.00 0.00 92 1015.0
20260906143156 69 78 6.0 10.0 0.00 0.00 0.00 93 1015.3
20260906142138 68 88 5.0 9.0 0.00 0.00 0.00 93 1015.3
20260906141136 68 72 3.0 8.0 0.00 0.00 0.00 94 1015.5
20260906140145 67 57 4.0 8.0 0.00 0.00 0.00 94 1015.4
20260906135139 67 55 5.0 8.0 0.00 0.00 0.00 93 1015.2
20260906134148 67 56 5.0 7.0 0.00 0.00 0.00 93 1015.1
20260906132028 67 48 0.0 0.0 0.00 0.00 0.00 94 1015.9
20260906125846 67 55 3.0 6.0 0.00 0.00 0.00 94 1015.5
20260906122524 67 106 7.0 13.0 0.00 0.00 0.00 94 1014.4
20260906121527 67 92 7.0 13.0 0.00 0.00 0.00 93 1014.2
20260906120454 66 88 7.0 13.0 0.00 0.00 0.00 93 1014.0
20260906115431 66 94 8.0 13.0 0.00 0.00 0.00 93 1014.0
20260906113225 66 81 6.0 9.0 0.00 0.00 0.00 92 1014.3
20260906112249 66 78 6.0 10.0 0.00 0.00 0.00 92 1014.5
20260906111308 66 78 6.0 11.0 0.00 0.00 0.00 92 1014.5
20260906110309 66 78 6.0 11.0 0.00 0.00 0.00 92 1014.6
20260906105316 66 76 7.0 11.0 0.00 0.00 0.00 92 1014.7
20260906104251 66 63 6.0 9.0 0.00 0.00 0.00 92 1014.6
20260906103252 66 74 5.0 9.0 0.00 0.00 0.00 92 1014.7
20260906102245 66 73 5.0 9.0 0.00 0.00 0.00 92 1014.8
20260906101214 67 72 5.0 8.0 0.00 0.00 0.00 92 1014.7
20260906100148 67 65 4.0 8.0 0.00 0.00 0.00 92 1014.9
20260906095212 67 65 3.0 6.0 0.00 0.00 0.00 92 1014.9
20260906094154 67 69 3.0 6.0 0.00 0.00 0.00 91 1015.0
20260906093157 68 71 4.0 6.0 0.00 0.00 0.00 91 1015.0
20260906092212 68 67 4.0 7.0 0.00 0.00 0.00 90 1015.0
20260906091201 69 73 3.0 9.0 0.00 0.00 0.00 90 1015.0
20260906090202 69 78 4.0 9.0 0.00 0.00 0.00 90 1015.0
20260906085157 69 72 4.0 7.0 0.00 0.00 0.00 90 1015.0
20260906084219 69 83 3.0 6.0 0.00 0.00 0.00 90 1015.1
20260906083220 69 78 1.0 4.0 0.00 0.00 0.00 90 1015.2
20260906082221 69 78 2.0 5.0 0.00 0.00 0.00 90 1015.3
20260906081242 69 77 2.0 5.0 0.00 0.00 0.00 90 1015.4
20260906080220 69 78 2.0 4.0 0.00 0.00 0.00 91 1015.6
20260906075213 69 76 2.0 4.0 0.00 0.00 0.00 92 1015.7
20260906074231 69 76 2.0 4.0 0.00 0.00 0.00 92 1015.7
20260906073206 68 76 2.0 5.0 0.00 0.00 0.00 93 1015.8
20260906071052 67 74 2.0 4.0 0.00 0.00 0.00 93 1015.8
20260906070032 67 74 2.0 4.0 0.00 0.00 0.00 92 1015.9
20260906065051 67 74 1.0 3.0 0.00 0.00 0.00 91 1015.8
20260906064110 67 74 2.0 3.0 0.00 0.00 0.00 90 1015.8
20260906063131 68 74 2.0 3.0 0.00 0.01 0.00 90 1015.9
20260906062058 68 74 2.0 6.0 0.00 0.03 0.00 90 1015.9
20260906061026 69 74 3.0 6.0 0.00 0.03 0.00 88 1015.8
20260906060022 69 75 4.0 7.0 0.00 0.03 0.00 88 1015.7
20260906055038 69 82 5.0 7.0 0.00 0.03 0.03 88 1015.7
20260906054042 70 79 4.0 7.0 0.00 0.03 0.03 88 1015.6
20260906053021 70 83 3.0 6.0 0.00 0.03 0.03 88 1015.5
20260906052044 70 83 3.0 7.0 0.00 0.03 0.03 88 1015.5
20260906051040 71 83 4.0 7.0 0.00 0.03 0.03 87 1015.5
20260906050036 72 91 4.0 7.0 0.00 0.03 0.03 86 1015.4
20260906045015 72 90 5.0 9.0 0.00 0.03 0.03 86 1015.6
20260906042921 73 80 4.0 8.0 0.00 0.03 0.03 84 1015.5
20260906041931 74 80 6.0 8.0 0.00 0.03 0.03 84 1015.5
20260906040941 73 84 5.0 8.0 0.00 0.03 0.03 85 1015.6
20260906035914 73 76 3.0 7.0 0.00 0.03 0.03 85 1015.5
20260906034936 73 71 3.0 6.0 0.00 0.03 0.03 85 1015.5
20260906033925 73 67 4.0 8.0 0.00 0.03 0.03 84 1015.4
20260906032903 73 62 6.0 8.0 0.00 0.03 0.03 84 1015.4
20260906030741 74 61 6.0 9.0 0.00 0.03 0.03 82 1015.4
20260906025732 74 59 7.0 9.0 0.00 0.03 0.03 81 1015.3
20260906024742 74 65 6.0 8.0 0.00 0.03 0.03 81 1015.4
20260906022629 75 60 7.0 11.0 0.00 0.03 0.03 81 1015.0
20260906021608 74 57 6.0 10.0 0.00 0.03 0.03 80 1014.8
20260906020547 75 57 5.0 7.0 0.00 0.03 0.03 81 1014.9
20260906015520 75 54 4.0 6.0 0.00 0.03 0.03 81 1014.7
20260906014540 75 59 3.0 6.0 0.00 0.03 0.03 80 1014.6
20260906013517 76 59 3.0 6.0 0.00 0.03 0.03 79 1014.6
20260906012513 76 63 3.0 4.0 0.00 0.03 0.03 78 1014.5
20260906011454 77 67 2.0 3.0 0.00 0.03 0.03 78 1014.4
20260906005323 77 67 1.0 2.0 0.00 0.03 0.03 76 1014.2
20260906004311 78 67 0.0 1.0 0.00 0.03 0.03 77 1014.2
20260906003241 78 67 0.0 2.0 0.00 0.03 0.03 77 1014.2
20260906002249 78 67 1.0 2.0 0.00 0.03 0.03 76 1014.1
20260905232759 79 77 0.0 0.0 0.00 0.03 0.03 73 1014.0
20260905231745 79 77 0.0 0.0 0.00 0.03 0.03 73 1014.0
20260905225543 79 77 0.0 0.0 0.00 0.03 0.03 74 1013.9
20260905224555 79 82 1.0 2.0 0.00 0.03 0.03 71 1013.7
20260905223523 79 82 2.0 2.0 0.00 0.03 0.03 69 1013.6
20260905221423 80 135 0.0 0.0 0.00 0.03 0.03 69 1013.6
20260905220357 80 135 0.0 0.0 0.00 0.03 0.03 68 1013.7
20260905215413 80 135 1.0 3.0 0.00 0.03 0.03 69 1013.7
20260905214412 79 123 2.0 6.0 0.00 0.03 0.03 68 1013.7
20260905213357 80 116 2.0 6.0 0.00 0.03 0.03 68 1013.7